Simultaneous Nadir Overpasses (SNOs) Predictions

Prediction of SNOs over PacNW region [( 10.00, 139.50) to ( 22.70, 165.60)] between AQUA and NPP Satellites:

Table of predicted SNOs over PacNW region for the next 30.0 days since TLE Epoch: 8/6/2022
Index Date (AQUA) Time (AQUA) AQUA Lat,Lon Date (NPP) Time (NPP) NPP Lat,Lon Distance(km) Time Diff (sec)
1 08/12/2022 16:11:52 22.58, 145.41 08/12/2022 16:15:06 23.51, 141.39 424.47 194
2 08/15/2022 02:54:15 22.69, 157.94 08/15/2022 02:50:45 25.38, 154.51 458.84 210
3 08/20/2022 15:20:31 22.63, 158.30 08/20/2022 15:24:00 25.04, 154.45 474.46 209
4 08/23/2022 03:41:46 22.69, 146.09 08/23/2022 03:40:37 21.99, 142.66 361.41 69
5 08/31/2022 02:50:23 22.65, 158.99 08/31/2022 02:49:56 21.90, 155.36 383.00 27
6 09/02/2022 16:28:33 10.97, 139.51 09/02/2022 16:25:19 10.63, 136.67 311.95 194
